Orbital Elements at Epoch 2459000.5 (2020-May-31.0) TDB
Reference: JPL 16 (heliocentric ecliptic J2000)
Element | Value | Uncertainty (1-sigma) | Units |
e | .046495640615081 | 5.7656e-08 | |
a | 2.739304362365275 | 2.9065e-08 | au |
q | 2.611938651197416 | 1.6309e-07 | au |
i | 7.660809282671699 | 4.5365e-06 | deg |
node | 94.2662330844111 | 4.7454e-05 | deg |
peri | 253.4753583475444 | 7.0276e-05 | deg |
M | 231.4485518187594 | 5.3207e-05 | deg |
tp | 2459591.834657492113 (2022-Jan-12.33465749) | 0.00024585 | TDB |
period | 1655.994387531342 4.53 | 2.6356e-05 7.216e-08 | d yr |
n | .217392041126822 | 3.46e-09 | deg/d |
Q | 2.866670073533135 | 3.0417e-08 | au |
|
| | Orbit Determination Parameters
Additional Information
|